Hourly Data Report for June 29, 2022

TORONTO CITY
ONTARIO
Current Station Operator: ECCC - MSC

43°40'00.000" N
79°24'00.000" W
112.50 m
6158355
71508
XTO

Download Data

Hourly Data (June 2022)
Hourly Data Report for June 29, 2022
TIME
LST
Temp Definition
°C
Dew Point Definition
°C
Rel Hum Definition
%
Precip. Amount Definition
mm

Wind Dir Definition
10's deg

Wind Spd Definition
km/h
Visibility Definition
km
Stn Press Definition
kPa
Hmdx Definition


Wind Chill Definition


Weather Definition


00:00 16.1 10.8 71 0.0       100.70     LegendNANA
01:00 15.9 10.1 68 0.0       100.69     LegendNANA
02:00 15.1 10.3 73 0.0       100.67     LegendNANA
03:00 15.6 9.9 69 0.0       100.70     LegendNANA
04:00 15.1 10.1 72 0.0       100.70     LegendNANA
05:00 15.4 10.0 70 0.0       100.73     LegendNANA
06:00 16.0 9.9 67 0.0       100.75     LegendNANA
07:00 17.4 9.9 61 0.0       100.78     LegendNANA
08:00 17.7 10.5 63 0.0       100.83     LegendNANA
09:00 15.8 12.4 80 0.5       100.86     LegendNANA
10:00 16.6 14.4 87 1.9       100.89     LegendNANA
11:00 17.5 15.7 89 0.3       100.90     LegendNANA
12:00 20.4 15.0 71 0.0       100.87     LegendNANA
13:00 21.6 15.2 67 0.0       100.86 26   LegendNANA
14:00 21.1 13.7 63 0.0       100.87     LegendNANA
15:00 21.6 14.7 65 0.0       100.81 25   LegendNANA
16:00 20.7 14.3 67 0.0       100.78     LegendNANA
17:00 20.8 14.4 67 0.0       100.78     LegendNANA
18:00 21.7 14.5 63 0.0       100.78 25   LegendNANA
19:00 21.8 15.3 67 0.0       100.82 26   LegendNANA
20:00 21.3 15.2 68 0.0       100.87 25   LegendNANA
21:00 20.2 13.1 64 0.0       100.91     LegendNANA
22:00 18.9 13.0 68 0.0       100.94     LegendNANA
23:00 17.7 12.3 71 0.0       100.93     LegendNANA

Notes on Data Quality.

Legend

  • E = Estimated
  • M = Missing
  • NA = Not Available*
  • [empty] = Indicates an unobserved value
Date modified: